Home   Weather   Heidelberg   Past weeks

Flag for Germany Past Weather in Heidelberg, Baden-Württemberg, Germany — Yesterday and Last 2 Weeks

Now
57 °F

Passing clouds.


Feels Like: 56 °F
Forecast: 38 / 55 °F
Wind: 7 mph from East

Location: Mannheim City

Current Time: Apr 24, 2017 at 1:56:05 pm

Latest Report: Apr 24, 2017 at 1:20 pm


Visibility: N/A

Pressure: 30.01 "Hg

Humidity: 29%

Dew Point: 25 °F

Location of HeidelbergLocation

Past Weather in Heidelberg — Graph

°F

Heidelberg Temperature Yesterday

Maximum temperature yesterday: 52 °F (at 4:20 pm)
Minimum temperature yesterday: 39 °F (at 7:20 am)
Average temperature yesterday: 48 °F

High & Low Weather Summary for the Past Weeks

 TemperatureHumidityPressure
High61 °F (Apr 21, 3:20 pm)100% (Apr 24, 5:20 am)30.60 "Hg (Apr 24, 5:20 am)
Low28 °F (Apr 20, 5:50 am)28% (Apr 21, 12:50 pm)30.04 "Hg (Apr 24, 12:20 pm)
Average47 °F51%30.37 "Hg
* Reported Apr 19 9:20 am — Apr 24 12:20 pm, Heidelberg, Weather by CustomWeather, © 2017

Note: Actual official high and low records may vary slightly from our data, if they occured in-between our weather recording intervals... More about our weather records

Advertising

Heidelberg Weather History for the Previous 24 Hours

Scroll right to see more
 ConditionsComfort  
Time TempWeatherWind HumidityBarometerVisibility
12:20 pm
Mon, Apr 24
55 °FSunny.3 mph33%30.04 "Hg10 mi
11:50 am54 °FSunny.3 mph35%30.07 "Hg10 mi
11:20 am52 °FSunny.5 mph38%30.07 "Hg10 mi
10:50 am52 °FPassing clouds.6 mph38%30.07 "HgN/A
10:20 am50 °FPassing clouds.5 mph43%30.09 "HgN/A
9:50 am48 °FPassing clouds.5 mph50%30.09 "HgN/A
9:20 am46 °FSunny.2 mph57%30.09 "Hg10 mi
8:50 am45 °FSunny.2 mph66%30.12 "Hg10 mi
8:20 am41 °FSunny.1 mph76%30.12 "Hg10 mi
7:50 am39 °FSunny.1 mph81%30.12 "Hg10 mi
7:20 am36 °FSunny.No wind93%30.12 "Hg10 mi
6:50 am32 °FSunny.1 mph93%30.12 "Hg10 mi
5:50 am32 °FClear.2 mph93%30.15 "Hg10 mi
5:20 am32 °FClear.1 mph100%30.15 "Hg10 mi
7:50 pm
Sun, Apr 23
50 °FSunny.7 mph40%30.24 "Hg10 mi
7:20 pm52 °FPassing clouds.9 mph38%30.24 "HgN/A
6:50 pm52 °FSunny.7 mph35%30.24 "Hg10 mi
6:20 pm52 °FPassing clouds.9 mph38%30.24 "HgN/A
5:50 pm52 °FSunny.3 mph38%30.24 "Hg10 mi
5:20 pm52 °FPassing clouds.10 mph35%30.24 "HgN/A
4:50 pm52 °FPassing clouds.9 mph35%30.24 "HgN/A
4:20 pm52 °FScattered clouds.8 mph35%30.24 "HgN/A
3:20 pm50 °FPassing clouds.8 mph40%30.27 "HgN/A
2:50 pm50 °FPassing clouds.12 mph43%30.27 "HgN/A
2:20 pm48 °FPassing clouds.10 mph43%30.27 "HgN/A
1:50 pm50 °FPassing clouds.9 mph40%30.27 "HgN/A
1:20 pm48 °FPartly sunny.8 mph46%30.27 "HgN/A
Weather by CustomWeather, © 2017

See weather overviewHow to use our weather pages